Time,TemperatureF,DewpointF,PressureIn,WindDirection,WindDirectionDegrees,WindSpeedMPH,WindSpeedGustMPH,Humidity,HourlyPrecipIn,Conditions,Clouds,dailyrainin,SoftwareType,DateUTC
2013-05-14 00:01:00,48.0,42.8,30.24,NW,319,0.0,0.0,82,0.00,,---,0.00,VWS V14.01,2013-05-14 04:01:00,
2013-05-14 00:06:00,47.9,42.7,30.24,NW,319,0.0,1.0,82,0.00,,---,0.00,VWS V14.01,2013-05-14 04:06:00,
2013-05-14 00:11:00,47.8,42.6,30.24,NW,319,0.0,0.0,82,0.00,,---,0.00,VWS V14.01,2013-05-14 04:11:00,
2013-05-14 00:16:00,47.8,42.6,30.24,NW,319,0.0,0.0,82,0.00,,---,0.00,VWS V14.01,2013-05-14 04:16:00,
2013-05-14 00:21:00,47.7,42.8,30.24,NW,319,0.0,0.0,83,0.00,,---,0.00,VWS V14.01,2013-05-14 04:21:00,
2013-05-14 00:26:00,47.6,42.7,30.24,NW,319,0.0,1.0,83,0.00,,---,0.00,VWS V14.01,2013-05-14 04:26:00,
2013-05-14 00:31:00,47.4,42.5,30.24,NW,319,0.0,1.0,83,0.00,,---,0.00,VWS V14.01,2013-05-14 04:31:00,
2013-05-14 00:36:00,47.3,42.4,30.24,NW,319,0.0,1.0,83,0.00,,---,0.00,VWS V14.01,2013-05-14 04:36:00,
2013-05-14 00:41:00,47.2,42.3,30.24,NW,319,0.0,0.0,83,0.00,,---,0.00,VWS V14.01,2013-05-14 04:41:00,
2013-05-14 00:46:00,47.1,42.2,30.25,NW,319,0.0,1.0,83,0.00,,---,0.00,VWS V14.01,2013-05-14 04:46:00,
2013-05-14 00:51:00,47.0,42.4,30.25,NW,319,0.0,1.0,84,0.00,,---,0.00,VWS V14.01,2013-05-14 04:51:00,
2013-05-14 00:56:00,47.0,42.4,30.24,NW,319,0.0,1.0,84,0.00,,---,0.00,VWS V14.01,2013-05-14 04:56:00,
2013-05-14 01:01:00,47.0,42.4,30.25,NW,319,0.0,1.0,84,0.00,,---,0.00,VWS V14.01,2013-05-14 05:01:00,
2013-05-14 01:06:00,46.9,42.3,30.25,NW,319,0.0,1.0,84,0.00,,---,0.00,VWS V14.01,2013-05-14 05:06:00,
2013-05-14 01:11:00,46.8,42.2,30.25,NW,319,0.0,1.0,84,0.00,,---,0.00,VWS V14.01,2013-05-14 05:11:00,
2013-05-14 01:16:00,46.8,42.5,30.25,NW,319,0.0,1.0,85,0.00,,---,0.00,VWS V14.01,2013-05-14 05:16:00,
2013-05-14 01:21:00,46.8,42.8,30.25,NW,319,0.0,1.0,86,0.00,,---,0.00,VWS V14.01,2013-05-14 05:21:00,
2013-05-14 01:25:00,46.7,42.7,30.25,NW,319,0.0,1.0,86,0.00,,---,0.00,VWS V14.01,2013-05-14 05:25:00,
2013-05-14 01:30:00,46.5,42.5,30.25,NW,319,0.0,1.0,86,0.00,,---,0.00,VWS V14.01,2013-05-14 05:30:00,
2013-05-14 01:35:00,46.3,42.3,30.25,NW,319,0.0,1.0,86,0.00,,---,0.00,VWS V14.01,2013-05-14 05:35:00,
2013-05-14 01:40:00,46.1,42.2,30.25,NW,319,0.0,0.0,86,0.00,,---,0.00,VWS V14.01,2013-05-14 05:40:00,
2013-05-14 01:45:00,45.9,42.0,30.25,NW,319,0.0,0.0,86,0.00,,---,0.00,VWS V14.01,2013-05-14 05:45:00,
2013-05-14 01:50:00,45.7,42.1,30.25,NW,319,0.0,0.0,87,0.00,,---,0.00,VWS V14.01,2013-05-14 05:50:00,
2013-05-14 01:55:00,45.6,42.0,30.25,NW,319,0.0,0.0,87,0.00,,---,0.00,VWS V14.01,2013-05-14 05:55:00,
2013-05-14 02:00:00,45.4,41.8,30.24,NW,319,0.0,0.0,87,0.00,,---,0.00,VWS V14.01,2013-05-14 06:00:00,
2013-05-14 02:05:00,45.3,42.0,30.25,NW,319,0.0,0.0,88,0.00,,---,0.00,VWS V14.01,2013-05-14 06:05:00,
2013-05-14 02:10:00,45.2,41.6,30.24,NW,319,0.0,0.0,87,0.00,,---,0.00,VWS V14.01,2013-05-14 06:10:00,
2013-05-14 02:15:00,45.1,41.8,30.24,NW,319,0.0,0.0,88,0.00,,---,0.00,VWS V14.01,2013-05-14 06:15:00,
2013-05-14 02:20:00,45.0,41.7,30.24,NW,319,0.0,0.0,88,0.00,,---,0.00,VWS V14.01,2013-05-14 06:20:00,
2013-05-14 02:25:00,44.9,41.6,30.24,NW,319,0.0,0.0,88,0.00,,---,0.00,VWS V14.01,2013-05-14 06:25:00,
2013-05-14 02:30:00,44.7,41.4,30.24,NW,319,0.0,0.0,88,0.00,,---,0.00,VWS V14.01,2013-05-14 06:30:00,
2013-05-14 02:35:00,44.6,41.3,30.24,NW,319,0.0,0.0,88,0.00,,---,0.00,VWS V14.01,2013-05-14 06:35:00,
2013-05-14 02:40:00,44.5,41.5,30.24,NW,319,0.0,0.0,89,0.00,,---,0.00,VWS V14.01,2013-05-14 06:40:00,
2013-05-14 02:45:00,44.4,41.4,30.24,NW,319,0.0,0.0,89,0.00,,---,0.00,VWS V14.01,2013-05-14 06:45:00,
2013-05-14 02:50:00,44.3,41.3,30.24,NW,319,0.0,0.0,89,0.00,,---,0.00,VWS V14.01,2013-05-14 06:50:00,
2013-05-14 02:55:00,44.2,41.2,30.24,NW,319,0.0,0.0,89,0.00,,---,0.00,VWS V14.01,2013-05-14 06:55:00,
2013-05-14 03:00:00,44.1,41.1,30.24,NW,319,0.0,1.0,89,0.00,,---,0.00,VWS V14.01,2013-05-14 07:00:00,
2013-05-14 03:05:00,44.0,41.3,30.24,NW,319,0.0,1.0,90,0.00,,---,0.00,VWS V14.01,2013-05-14 07:05:00,
2013-05-14 03:10:00,43.9,41.2,30.24,NW,319,0.0,0.0,90,0.00,,---,0.00,VWS V14.01,2013-05-14 07:10:00,
2013-05-14 03:15:00,43.8,41.1,30.24,NW,319,0.0,1.0,90,0.00,,---,0.00,VWS V14.01,2013-05-14 07:15:00,
2013-05-14 03:20:00,43.9,41.2,30.24,NW,319,0.0,1.0,90,0.00,,---,0.00,VWS V14.01,2013-05-14 07:20:00,
2013-05-14 03:25:00,44.0,41.3,30.24,NW,319,0.0,1.0,90,0.00,,---,0.00,VWS V14.01,2013-05-14 07:25:00,
2013-05-14 03:30:00,43.9,41.2,30.24,NW,319,0.0,1.0,90,0.00,,---,0.00,VWS V14.01,2013-05-14 07:30:00,
2013-05-14 03:35:00,43.9,41.2,30.24,NW,319,0.0,1.0,90,0.00,,---,0.00,VWS V14.01,2013-05-14 07:35:00,
2013-05-14 03:40:00,43.8,41.1,30.24,NW,319,0.0,0.0,90,0.00,,---,0.00,VWS V14.01,2013-05-14 07:40:00,
2013-05-14 03:45:00,43.7,41.0,30.24,NW,319,0.0,0.0,90,0.00,,---,0.00,VWS V14.01,2013-05-14 07:45:00,
2013-05-14 03:50:00,43.6,40.9,30.24,NW,319,0.0,0.0,90,0.00,,---,0.00,VWS V14.01,2013-05-14 07:50:00,
2013-05-14 03:55:00,43.6,40.9,30.24,NW,319,0.0,0.0,90,0.00,,---,0.00,VWS V14.01,2013-05-14 07:55:00,
2013-05-14 04:00:00,43.4,40.7,30.24,NW,319,0.0,1.0,90,0.00,,---,0.00,VWS V14.01,2013-05-14 08:00:00,
2013-05-14 04:05:00,43.4,41.0,30.24,NW,319,0.0,1.0,91,0.00,,---,0.00,VWS V14.01,2013-05-14 08:05:00,
2013-05-14 04:10:00,43.3,40.8,30.24,NW,319,0.0,0.0,91,0.00,,---,0.00,VWS V14.01,2013-05-14 08:10:00,
2013-05-14 04:15:00,43.3,40.8,30.24,NW,319,0.0,1.0,91,0.00,,---,0.00,VWS V14.01,2013-05-14 08:15:00,
2013-05-14 04:20:00,43.1,40.7,30.24,NW,319,0.0,1.0,91,0.00,,---,0.00,VWS V14.01,2013-05-14 08:20:00,
2013-05-14 04:25:00,43.1,40.4,30.24,NW,319,0.0,1.0,90,0.00,,---,0.00,VWS V14.01,2013-05-14 08:25:00,
2013-05-14 04:30:00,43.0,40.6,30.24,NW,319,0.0,1.0,91,0.00,,---,0.00,VWS V14.01,2013-05-14 08:30:00,
2013-05-14 04:35:00,42.8,40.4,30.24,NW,319,0.0,1.0,91,0.00,,---,0.00,VWS V14.01,2013-05-14 08:35:00,
2013-05-14 04:40:00,42.7,40.3,30.24,NW,319,0.0,0.0,91,0.00,,---,0.00,VWS V14.01,2013-05-14 08:40:00,
2013-05-14 04:45:00,42.7,40.3,30.24,NW,319,0.0,0.0,91,0.00,,---,0.00,VWS V14.01,2013-05-14 08:45:00,
2013-05-14 04:50:00,42.6,40.2,30.24,NW,319,0.0,0.0,91,0.00,,---,0.00,VWS V14.01,2013-05-14 08:50:00,
2013-05-14 04:55:00,42.5,40.3,30.24,NW,319,0.0,0.0,92,0.00,,---,0.00,VWS V14.01,2013-05-14 08:55:00,
2013-05-14 05:00:00,42.5,40.3,30.24,NW,319,0.0,0.0,92,0.00,,---,0.00,VWS V14.01,2013-05-14 09:00:00,
2013-05-14 05:05:00,42.5,40.3,30.24,NW,319,1.0,1.0,92,0.00,,---,0.00,VWS V14.01,2013-05-14 09:05:00,
2013-05-14 05:10:00,42.6,40.4,30.24,NW,319,0.0,1.0,92,0.00,,---,0.00,VWS V14.01,2013-05-14 09:10:00,
2013-05-14 05:15:00,42.8,40.4,30.23,NW,319,1.0,1.0,91,0.00,,---,0.00,VWS V14.01,2013-05-14 09:15:00,
2013-05-14 05:20:00,42.9,40.5,30.24,NW,319,0.0,1.0,91,0.00,,---,0.00,VWS V14.01,2013-05-14 09:20:00,
2013-05-14 05:25:00,42.9,40.5,30.24,NW,319,0.0,1.0,91,0.00,,---,0.00,VWS V14.01,2013-05-14 09:25:00,
2013-05-14 05:30:00,42.8,40.4,30.24,NW,319,0.0,1.0,91,0.00,,---,0.00,VWS V14.01,2013-05-14 09:30:00,
2013-05-14 05:35:00,42.7,40.3,30.24,NW,319,0.0,1.0,91,0.00,,---,0.00,VWS V14.01,2013-05-14 09:35:00,
2013-05-14 05:40:00,42.7,40.3,30.24,NW,319,0.0,0.0,91,0.00,,---,0.00,VWS V14.01,2013-05-14 09:40:00,
2013-05-14 05:45:00,42.7,40.3,30.25,NW,319,0.0,0.0,91,0.00,,---,0.00,VWS V14.01,2013-05-14 09:45:00,
2013-05-14 05:50:00,42.7,40.3,30.25,NW,319,0.0,1.0,91,0.00,,---,0.00,VWS V14.01,2013-05-14 09:50:00,
2013-05-14 05:55:00,42.8,40.4,30.25,NW,319,0.0,1.0,91,0.00,,---,0.00,VWS V14.01,2013-05-14 09:55:00,
2013-05-14 06:00:00,42.7,40.3,30.25,NW,319,0.0,1.0,91,0.00,,---,0.00,VWS V14.01,2013-05-14 10:00:00,
2013-05-14 06:05:00,42.7,40.3,30.25,NW,319,1.0,1.0,91,0.00,,---,0.00,VWS V14.01,2013-05-14 10:05:00,
2013-05-14 06:10:00,42.6,40.2,30.26,NW,319,0.0,0.0,91,0.00,,---,0.00,VWS V14.01,2013-05-14 10:10:00,
2013-05-14 06:15:00,42.5,40.1,30.26,NW,319,0.0,0.0,91,0.00,,---,0.00,VWS V14.01,2013-05-14 10:15:00,
2013-05-14 06:20:00,42.4,40.0,30.26,NW,319,0.0,0.0,91,0.00,,---,0.00,VWS V14.01,2013-05-14 10:20:00,
2013-05-14 06:25:00,42.4,40.2,30.27,NW,319,0.0,0.0,92,0.00,,---,0.00,VWS V14.01,2013-05-14 10:25:00,
2013-05-14 06:30:00,42.3,39.9,30.27,NW,319,0.0,0.0,91,0.00,,---,0.00,VWS V14.01,2013-05-14 10:30:00,
2013-05-14 06:35:00,42.2,40.0,30.27,NW,319,0.0,0.0,92,0.00,,---,0.00,VWS V14.01,2013-05-14 10:35:00,
2013-05-14 06:40:00,42.2,40.0,30.27,NW,319,1.0,1.0,92,0.00,,---,0.00,VWS V14.01,2013-05-14 10:40:00,
2013-05-14 06:45:00,42.3,40.4,30.27,NW,319,0.0,1.0,93,0.00,,---,0.00,VWS V14.01,2013-05-14 10:45:00,
2013-05-14 06:50:00,42.4,40.5,30.27,SSE,156,0.0,1.0,93,0.00,,---,0.00,VWS V14.01,2013-05-14 10:50:00,
2013-05-14 06:54:00,42.5,40.6,30.27,SSE,155,0.0,1.0,93,0.00,,---,0.00,VWS V14.01,2013-05-14 10:54:00,
2013-05-14 06:59:00,42.6,40.7,30.27,SSE,155,0.0,1.0,93,0.00,,---,0.00,VWS V14.01,2013-05-14 10:59:00,
2013-05-14 07:04:00,42.6,40.7,30.27,ESE,123,0.0,1.0,93,0.00,,---,0.00,VWS V14.01,2013-05-14 11:04:00,
2013-05-14 07:09:00,42.7,40.8,30.27,SE,124,0.0,0.0,93,0.00,,---,0.00,VWS V14.01,2013-05-14 11:09:00,
2013-05-14 07:14:00,42.8,40.9,30.28,ESE,123,0.0,0.0,93,0.00,,---,0.00,VWS V14.01,2013-05-14 11:14:00,
2013-05-14 07:19:00,42.9,41.0,30.27,SW,218,0.0,1.0,93,0.00,,---,0.00,VWS V14.01,2013-05-14 11:19:00,
2013-05-14 07:24:00,43.1,41.2,30.28,SW,218,0.0,1.0,93,0.00,,---,0.00,VWS V14.01,2013-05-14 11:24:00,
2013-05-14 07:29:00,43.3,41.7,30.28,SW,218,0.0,1.0,94,0.00,,---,0.00,VWS V14.01,2013-05-14 11:29:00,
2013-05-14 07:34:00,43.6,42.0,30.28,SW,218,0.0,1.0,94,0.00,,---,0.00,VWS V14.01,2013-05-14 11:34:00,
2013-05-14 07:39:00,44.0,42.4,30.28,SW,218,0.0,0.0,94,0.00,,---,0.00,VWS V14.01,2013-05-14 11:39:00,
2013-05-14 07:44:00,44.6,43.3,30.28,SW,218,0.0,0.0,95,0.00,,---,0.00,VWS V14.01,2013-05-14 11:44:00,
2013-05-14 07:49:00,45.3,44.0,30.28,SW,218,0.0,0.0,95,0.00,,---,0.00,VWS V14.01,2013-05-14 11:49:00,
2013-05-14 07:54:00,46.0,44.7,30.28,SW,218,0.0,1.0,95,0.00,,---,0.00,VWS V14.01,2013-05-14 11:54:00,
2013-05-14 07:59:00,46.9,45.5,30.28,SW,218,1.0,1.0,95,0.00,,---,0.00,VWS V14.01,2013-05-14 11:59:00,
2013-05-14 08:04:00,48.2,46.8,30.29,SW,218,0.0,1.0,95,0.00,,---,0.00,VWS V14.01,2013-05-14 12:04:00,
2013-05-14 08:09:00,49.9,48.8,30.29,SW,218,0.0,1.0,96,0.00,,---,0.00,VWS V14.01,2013-05-14 12:09:00,
2013-05-14 08:14:00,51.7,50.0,30.29,SW,225,0.0,1.0,94,0.00,,---,0.00,VWS V14.01,2013-05-14 12:14:00,
2013-05-14 08:19:00,53.5,51.2,30.28,SW,232,0.0,1.0,92,0.00,,---,0.00,VWS V14.01,2013-05-14 12:19:00,
2013-05-14 08:24:00,55.1,51.3,30.28,SW,233,0.0,1.0,87,0.00,,---,0.00,VWS V14.01,2013-05-14 12:24:00,
2013-05-14 08:29:00,56.5,51.7,30.28,SW,234,1.0,2.0,84,0.00,,---,0.00,VWS V14.01,2013-05-14 12:29:00,
2013-05-14 08:34:00,57.4,52.0,30.28,SW,233,0.0,2.0,82,0.00,,---,0.00,VWS V14.01,2013-05-14 12:34:00,
2013-05-14 08:39:00,58.2,52.1,30.28,SW,234,1.0,2.0,80,0.00,,---,0.00,VWS V14.01,2013-05-14 12:39:00,
2013-05-14 08:44:00,59.1,52.6,30.28,SW,233,1.0,2.0,79,0.00,,---,0.00,VWS V14.01,2013-05-14 12:44:00,
2013-05-14 08:49:00,60.0,53.1,30.28,WSW,245,0.0,2.0,78,0.00,,---,0.00,VWS V14.01,2013-05-14 12:49:00,
2013-05-14 08:54:00,60.3,52.0,30.28,WSW,248,0.0,2.0,74,0.00,,---,0.00,VWS V14.01,2013-05-14 12:54:00,
2013-05-14 08:59:00,60.6,52.6,30.28,NNW,327,0.0,2.0,75,0.00,,---,0.00,VWS V14.01,2013-05-14 12:59:00,
2013-05-14 09:04:00,61.1,51.6,30.28,East,85,1.0,2.0,71,0.00,,---,0.00,VWS V14.01,2013-05-14 13:04:00,
2013-05-14 09:09:00,61.3,53.0,30.28,East,86,2.0,2.0,74,0.00,,---,0.00,VWS V14.01,2013-05-14 13:09:00,
2013-05-14 09:14:00,62.3,53.5,30.28,ENE,76,3.0,3.0,73,0.00,,---,0.00,VWS V14.01,2013-05-14 13:14:00,
2013-05-14 09:19:00,63.5,53.5,30.28,ENE,72,1.0,3.0,70,0.00,,---,0.00,VWS V14.01,2013-05-14 13:19:00,
2013-05-14 09:24:00,63.9,54.3,30.28,ENE,73,0.0,3.0,71,0.00,,---,0.00,VWS V14.01,2013-05-14 13:24:00,
2013-05-14 09:29:00,64.5,54.5,30.28,West,263,1.0,3.0,70,0.00,,---,0.00,VWS V14.01,2013-05-14 13:29:00,
2013-05-14 09:34:00,64.7,53.1,30.28,North,11,0.0,3.0,66,0.00,,---,0.00,VWS V14.01,2013-05-14 13:34:00,
2013-05-14 09:39:00,64.6,53.4,30.27,NNW,342,1.0,2.0,67,0.00,,---,0.00,VWS V14.01,2013-05-14 13:39:00,
2013-05-14 09:44:00,64.9,54.1,30.28,North,360,1.0,2.0,68,0.00,,---,0.00,VWS V14.01,2013-05-14 13:44:00,
2013-05-14 09:49:00,65.4,53.3,30.27,NW,305,1.0,2.0,65,0.00,,---,0.00,VWS V14.01,2013-05-14 13:49:00,
2013-05-14 09:54:00,65.9,53.0,30.27,NNW,332,1.0,2.0,63,0.00,,---,0.00,VWS V14.01,2013-05-14 13:54:00,
2013-05-14 09:59:00,65.0,51.7,30.27,NNW,342,2.0,3.0,62,0.00,,---,0.00,VWS V14.01,2013-05-14 13:59:00,
2013-05-14 10:04:00,64.4,51.5,30.27,East,82,0.0,3.0,63,0.00,,---,0.00,VWS V14.01,2013-05-14 14:04:00,
2013-05-14 10:09:00,64.3,51.0,30.28,NNE,28,1.0,2.0,62,0.00,,---,0.00,VWS V14.01,2013-05-14 14:09:00,
2013-05-14 10:14:00,64.9,50.2,30.27,WNW,284,0.0,2.0,59,0.00,,---,0.00,VWS V14.01,2013-05-14 14:14:00,
2013-05-14 10:19:00,65.2,49.1,30.27,ENE,68,0.0,2.0,56,0.00,,---,0.00,VWS V14.01,2013-05-14 14:19:00,
2013-05-14 10:24:00,65.4,51.6,30.27,ESE,105,1.0,3.0,61,0.00,,---,0.00,VWS V14.01,2013-05-14 14:24:00,
2013-05-14 10:29:00,65.5,53.4,30.27,WSW,244,2.0,3.0,65,0.00,,---,0.00,VWS V14.01,2013-05-14 14:29:00,
2013-05-14 10:34:00,66.6,51.8,30.27,South,184,2.0,4.0,59,0.00,,---,0.00,VWS V14.01,2013-05-14 14:34:00,
2013-05-14 10:39:00,66.2,51.5,30.27,SW,215,2.0,4.0,59,0.00,,---,0.00,VWS V14.01,2013-05-14 14:39:00,
2013-05-14 10:44:00,66.2,50.1,30.27,South,180,1.0,4.0,56,0.00,,---,0.00,VWS V14.01,2013-05-14 14:44:00,
2013-05-14 10:49:00,66.1,51.8,30.27,SSE,161,1.0,4.0,60,0.00,,---,0.00,VWS V14.01,2013-05-14 14:49:00,
2013-05-14 10:54:00,66.3,50.6,30.27,ESE,123,4.0,4.0,57,0.00,,---,0.00,VWS V14.01,2013-05-14 14:54:00,
2013-05-14 10:59:00,66.3,51.1,30.27,ESE,110,3.0,5.0,58,0.00,,---,0.00,VWS V14.01,2013-05-14 14:59:00,
2013-05-14 11:04:00,66.3,51.1,30.27,ESE,118,2.0,5.0,58,0.00,,---,0.00,VWS V14.01,2013-05-14 15:04:00,
2013-05-14 11:09:00,67.0,52.7,30.27,WSW,253,1.0,3.0,60,0.00,,---,0.00,VWS V14.01,2013-05-14 15:09:00,
2013-05-14 11:14:00,68.4,54.0,30.27,WSW,253,1.0,3.0,60,0.00,,---,0.00,VWS V14.01,2013-05-14 15:14:00,
2013-05-14 11:19:00,69.5,52.6,30.26,ESE,122,1.0,5.0,55,0.00,,---,0.00,VWS V14.01,2013-05-14 15:19:00,
2013-05-14 11:24:00,70.0,50.5,30.26,NNE,21,1.0,5.0,50,0.00,,---,0.00,VWS V14.01,2013-05-14 15:24:00,
2013-05-14 11:29:00,70.3,51.9,30.26,SSE,164,3.0,5.0,52,0.00,,---,0.00,VWS V14.01,2013-05-14 15:29:00,
2013-05-14 11:34:00,70.7,51.7,30.26,SSW,199,2.0,5.0,51,0.00,,---,0.00,VWS V14.01,2013-05-14 15:34:00,
2013-05-14 11:39:00,70.9,52.9,30.26,ESE,113,1.0,4.0,53,0.00,,---,0.00,VWS V14.01,2013-05-14 15:39:00,
2013-05-14 11:44:00,70.5,51.5,30.26,ESE,114,1.0,4.0,51,0.00,,---,0.00,VWS V14.01,2013-05-14 15:44:00,
2013-05-14 11:49:00,69.9,51.0,30.25,ESE,122,1.0,4.0,51,0.00,,---,0.00,VWS V14.01,2013-05-14 15:49:00,
2013-05-14 11:54:00,69.7,51.3,30.25,NNW,344,1.0,4.0,52,0.00,,---,0.00,VWS V14.01,2013-05-14 15:54:00,
2013-05-14 11:59:00,70.2,53.3,30.25,West,269,2.0,4.0,55,0.00,,---,0.00,VWS V14.01,2013-05-14 15:59:00,
2013-05-14 12:04:00,71.4,53.4,30.25,WSW,238,1.0,4.0,53,0.00,,---,0.00,VWS V14.01,2013-05-14 16:04:00,
2013-05-14 12:09:00,72.8,56.2,30.25,WSW,250,3.0,4.0,56,0.00,,---,0.00,VWS V14.01,2013-05-14 16:09:00,
2013-05-14 12:14:00,73.6,53.8,30.25,WSW,258,5.0,6.0,50,0.00,,---,0.00,VWS V14.01,2013-05-14 16:14:00,
2013-05-14 12:19:00,74.0,54.2,30.24,WSW,242,2.0,6.0,50,0.00,,---,0.00,VWS V14.01,2013-05-14 16:19:00,
2013-05-14 12:24:00,74.5,55.2,30.24,WSW,248,4.0,6.0,51,0.00,,---,0.00,VWS V14.01,2013-05-14 16:24:00,
2013-05-14 12:29:00,75.2,57.9,30.24,South,178,1.0,6.0,55,0.00,,---,0.00,VWS V14.01,2013-05-14 16:29:00,
2013-05-14 12:34:00,75.1,54.7,30.23,East,94,1.0,6.0,49,0.00,,---,0.00,VWS V14.01,2013-05-14 16:34:00,
2013-05-14 12:39:00,74.5,56.8,30.23,West,272,1.0,3.0,54,0.00,,---,0.00,VWS V14.01,2013-05-14 16:39:00,
2013-05-14 12:44:00,74.5,55.7,30.23,SSE,150,1.0,4.0,52,0.00,,---,0.00,VWS V14.01,2013-05-14 16:44:00,
2013-05-14 12:49:00,74.1,54.3,30.23,ESE,107,2.0,5.0,50,0.00,,---,0.00,VWS V14.01,2013-05-14 16:49:00,
2013-05-14 12:54:00,73.9,55.2,30.23,SSW,194,2.0,6.0,52,0.00,,---,0.00,VWS V14.01,2013-05-14 16:54:00,
2013-05-14 12:59:00,74.5,58.3,30.22,WSW,254,1.0,6.0,57,0.00,,---,0.00,VWS V14.01,2013-05-14 16:59:00,
2013-05-14 13:04:00,75.1,55.8,30.22,SSW,211,4.0,6.0,51,0.00,,---,0.00,VWS V14.01,2013-05-14 17:04:00,
2013-05-14 13:08:00,75.1,55.2,30.22,SSW,205,2.0,4.0,50,0.00,,---,0.00,VWS V14.01,2013-05-14 17:08:00,
2013-05-14 13:13:00,75.1,57.3,30.22,South,176,2.0,5.0,54,0.00,,---,0.00,VWS V14.01,2013-05-14 17:13:00,
2013-05-14 13:18:00,75.8,58.0,30.21,West,269,1.0,5.0,54,0.00,,---,0.00,VWS V14.01,2013-05-14 17:18:00,
2013-05-14 13:23:00,76.6,55.5,30.21,SE,138,2.0,5.0,48,0.00,,---,0.00,VWS V14.01,2013-05-14 17:23:00,
2013-05-14 13:28:00,76.9,59.0,30.21,WSW,245,1.0,6.0,54,0.00,,---,0.00,VWS V14.01,2013-05-14 17:28:00,
2013-05-14 13:33:00,77.4,56.8,30.20,SW,216,3.0,10.0,49,0.00,,---,0.00,VWS V14.01,2013-05-14 17:33:00,
2013-05-14 13:38:00,77.8,58.8,30.20,NNW,340,0.0,6.0,52,0.00,,---,0.00,VWS V14.01,2013-05-14 17:38:00,
2013-05-14 13:43:00,78.0,57.9,30.20,SSW,194,1.0,6.0,50,0.00,,---,0.00,VWS V14.01,2013-05-14 17:43:00,
2013-05-14 13:48:00,78.2,56.9,30.19,WNW,291,2.0,6.0,48,0.00,,---,0.00,VWS V14.01,2013-05-14 17:48:00,
2013-05-14 13:53:00,77.9,58.3,30.19,SW,227,1.0,6.0,51,0.00,,---,0.00,VWS V14.01,2013-05-14 17:53:00,
2013-05-14 13:58:00,78.1,60.6,30.19,SW,219,1.0,6.0,55,0.00,,---,0.00,VWS V14.01,2013-05-14 17:58:00,
2013-05-14 14:03:00,78.6,60.6,30.18,SE,134,2.0,6.0,54,0.00,,---,0.00,VWS V14.01,2013-05-14 18:03:00,
2013-05-14 14:08:00,78.9,59.8,30.19,SSE,152,1.0,4.0,52,0.00,,---,0.00,VWS V14.01,2013-05-14 18:08:00,
2013-05-14 14:13:00,79.1,57.8,30.18,SSE,157,1.0,6.0,48,0.00,,---,0.00,VWS V14.01,2013-05-14 18:13:00,
2013-05-14 14:18:00,79.1,60.0,30.18,WSW,250,2.0,6.0,52,0.00,,---,0.00,VWS V14.01,2013-05-14 18:18:00,
2013-05-14 14:23:00,79.5,59.8,30.17,SW,227,1.0,6.0,51,0.00,,---,0.00,VWS V14.01,2013-05-14 18:23:00,
2013-05-14 14:28:00,79.8,59.5,30.17,SSW,193,1.0,6.0,50,0.00,,---,0.00,VWS V14.01,2013-05-14 18:28:00,
2013-05-14 14:33:00,80.0,60.3,30.17,South,170,2.0,6.0,51,0.00,,---,0.00,VWS V14.01,2013-05-14 18:33:00,
2013-05-14 14:38:00,80.4,59.5,30.16,WSW,250,2.0,3.0,49,0.00,,---,0.00,VWS V14.01,2013-05-14 18:38:00,
2013-05-14 14:43:00,80.9,62.7,30.16,WNW,286,3.0,3.0,54,0.00,,---,0.00,VWS V14.01,2013-05-14 18:43:00,
2013-05-14 14:48:00,81.1,61.8,30.16,SSW,205,1.0,4.0,52,0.00,,---,0.00,VWS V14.01,2013-05-14 18:48:00,
2013-05-14 14:53:00,80.9,61.1,30.15,West,260,2.0,4.0,51,0.00,,---,0.00,VWS V14.01,2013-05-14 18:53:00,
2013-05-14 14:58:00,80.7,59.2,30.15,SE,130,1.0,4.0,48,0.00,,---,0.00,VWS V14.01,2013-05-14 18:58:00,
2013-05-14 15:03:00,80.3,61.1,30.15,WSW,237,0.0,4.0,52,0.00,,---,0.00,VWS V14.01,2013-05-14 19:03:00,
2013-05-14 15:08:00,80.5,61.8,30.14,South,173,2.0,3.0,53,0.00,,---,0.00,VWS V14.01,2013-05-14 19:08:00,
2013-05-14 15:13:00,80.6,58.5,30.14,SSE,164,0.0,6.0,47,0.00,,---,0.00,VWS V14.01,2013-05-14 19:13:00,
2013-05-14 15:18:00,80.8,62.1,30.14,SSE,164,1.0,6.0,53,0.00,,---,0.00,VWS V14.01,2013-05-14 19:18:00,
2013-05-14 15:23:00,81.4,61.0,30.13,South,186,2.0,6.0,50,0.00,,---,0.00,VWS V14.01,2013-05-14 19:23:00,
2013-05-14 15:28:00,81.7,58.3,30.13,SE,128,2.0,6.0,45,0.00,,---,0.00,VWS V14.01,2013-05-14 19:28:00,
2013-05-14 15:33:00,81.6,60.0,30.13,SE,138,2.0,6.0,48,0.00,,---,0.00,VWS V14.01,2013-05-14 19:33:00,
2013-05-14 15:38:00,81.8,60.8,30.12,West,280,2.0,3.0,49,0.00,,---,0.00,VWS V14.01,2013-05-14 19:38:00,
2013-05-14 15:43:00,82.1,59.3,30.12,SSE,148,1.0,3.0,46,0.00,,---,0.00,VWS V14.01,2013-05-14 19:43:00,
2013-05-14 15:48:00,82.1,58.7,30.12,SSE,167,1.0,5.0,45,0.00,,---,0.00,VWS V14.01,2013-05-14 19:48:00,
2013-05-14 15:53:00,82.2,60.6,30.12,SSE,159,0.0,5.0,48,0.00,,---,0.00,VWS V14.01,2013-05-14 19:53:00,
2013-05-14 15:58:00,82.8,59.9,30.11,ESE,118,1.0,5.0,46,0.00,,---,0.00,VWS V14.01,2013-05-14 19:58:00,
2013-05-14 16:03:00,83.0,61.3,30.11,North,355,1.0,5.0,48,0.00,,---,0.00,VWS V14.01,2013-05-14 20:03:00,
2013-05-14 16:08:00,82.9,58.8,30.11,ENE,71,2.0,5.0,44,0.00,,---,0.00,VWS V14.01,2013-05-14 20:08:00,
2013-05-14 16:13:00,82.7,58.0,30.11,SE,128,5.0,5.0,43,0.00,,---,0.00,VWS V14.01,2013-05-14 20:13:00,
2013-05-14 16:18:00,82.4,59.6,30.11,ESE,102,2.0,5.0,46,0.00,,---,0.00,VWS V14.01,2013-05-14 20:18:00,
2013-05-14 16:23:00,82.4,58.3,30.11,ESE,109,4.0,5.0,44,0.00,,---,0.00,VWS V14.01,2013-05-14 20:23:00,
2013-05-14 16:28:00,82.4,58.3,30.11,South,186,2.0,10.0,44,0.00,,---,0.00,VWS V14.01,2013-05-14 20:28:00,
2013-05-14 16:33:00,82.5,59.7,30.11,SSE,153,1.0,10.0,46,0.00,,---,0.00,VWS V14.01,2013-05-14 20:33:00,
2013-05-14 16:38:00,82.6,58.5,30.10,ESE,123,1.0,2.0,44,0.00,,---,0.00,VWS V14.01,2013-05-14 20:38:00,
2013-05-14 16:43:00,82.9,58.8,30.10,East,101,2.0,4.0,44,0.00,,---,0.00,VWS V14.01,2013-05-14 20:43:00,
2013-05-14 16:48:00,82.8,59.3,30.10,ESE,102,4.0,4.0,45,0.00,,---,0.00,VWS V14.01,2013-05-14 20:48:00,
2013-05-14 16:53:00,82.3,58.2,30.10,SE,142,3.0,5.0,44,0.00,,---,0.00,VWS V14.01,2013-05-14 20:53:00,
2013-05-14 16:58:00,82.0,59.2,30.10,ESE,123,1.0,5.0,46,0.00,,---,0.00,VWS V14.01,2013-05-14 20:58:00,
2013-05-14 17:03:00,81.6,58.8,30.10,SE,128,3.0,6.0,46,0.00,,---,0.00,VWS V14.01,2013-05-14 21:03:00,
2013-05-14 17:08:00,80.9,57.6,30.10,ESE,117,4.0,7.0,45,0.00,,---,0.00,VWS V14.01,2013-05-14 21:08:00,
2013-05-14 17:13:00,80.3,57.0,30.09,ESE,122,3.0,7.0,45,0.00,,---,0.00,VWS V14.01,2013-05-14 21:13:00,
2013-05-14 17:18:00,79.9,57.9,30.10,ESE,120,2.0,12.0,47,0.00,,---,0.00,VWS V14.01,2013-05-14 21:18:00,
2013-05-14 17:23:00,79.8,60.1,30.10,SE,134,1.0,12.0,51,0.00,,---,0.00,VWS V14.01,2013-05-14 21:23:00,
2013-05-14 17:28:00,79.7,58.9,30.10,SSE,148,0.0,12.0,49,0.00,,---,0.00,VWS V14.01,2013-05-14 21:28:00,
2013-05-14 17:33:00,79.6,58.8,30.09,East,96,2.0,12.0,49,0.00,,---,0.00,VWS V14.01,2013-05-14 21:33:00,
2013-05-14 17:38:00,79.3,57.9,30.09,ESE,107,4.0,5.0,48,0.00,,---,0.00,VWS V14.01,2013-05-14 21:38:00,
2013-05-14 17:43:00,79.3,58.5,30.09,NNW,342,1.0,5.0,49,0.00,,---,0.00,VWS V14.01,2013-05-14 21:43:00,
2013-05-14 17:48:00,79.3,58.5,30.09,SSW,198,2.0,5.0,49,0.00,,---,0.00,VWS V14.01,2013-05-14 21:48:00,
2013-05-14 17:53:00,79.4,58.6,30.09,SSE,147,4.0,5.0,49,0.00,,---,0.00,VWS V14.01,2013-05-14 21:53:00,
2013-05-14 17:58:00,79.5,58.7,30.09,ESE,119,2.0,5.0,49,0.00,,---,0.00,VWS V14.01,2013-05-14 21:58:00,
2013-05-14 18:03:00,79.6,59.9,30.09,SSE,163,0.0,6.0,51,0.00,,---,0.00,VWS V14.01,2013-05-14 22:03:00,
2013-05-14 18:08:00,79.6,59.9,30.09,SSW,206,1.0,4.0,51,0.00,,---,0.00,VWS V14.01,2013-05-14 22:08:00,
2013-05-14 18:13:00,79.5,58.7,30.09,SSE,161,3.0,5.0,49,0.00,,---,0.00,VWS V14.01,2013-05-14 22:13:00,
2013-05-14 18:18:00,79.4,59.2,30.09,SSE,150,3.0,5.0,50,0.00,,---,0.00,VWS V14.01,2013-05-14 22:18:00,
2013-05-14 18:23:00,79.2,59.0,30.08,South,190,1.0,5.0,50,0.00,,---,0.00,VWS V14.01,2013-05-14 22:23:00,
2013-05-14 18:28:00,78.8,59.2,30.08,SW,217,3.0,5.0,51,0.00,,---,0.00,VWS V14.01,2013-05-14 22:28:00,
2013-05-14 18:33:00,78.6,59.5,30.08,West,275,1.0,5.0,52,0.00,,---,0.00,VWS V14.01,2013-05-14 22:33:00,
2013-05-14 18:38:00,78.3,58.2,30.08,ESE,108,4.0,5.0,50,0.00,,---,0.00,VWS V14.01,2013-05-14 22:38:00,
2013-05-14 18:43:00,78.1,60.1,30.08,SE,130,2.0,5.0,54,0.00,,---,0.00,VWS V14.01,2013-05-14 22:43:00,
2013-05-14 18:48:00,77.8,58.8,30.08,SSE,167,2.0,5.0,52,0.00,,---,0.00,VWS V14.01,2013-05-14 22:48:00,
2013-05-14 18:53:00,77.5,59.0,30.08,South,180,2.0,5.0,53,0.00,,---,0.00,VWS V14.01,2013-05-14 22:53:00,
2013-05-14 18:58:00,77.4,58.4,30.08,ESE,119,1.0,5.0,52,0.00,,---,0.00,VWS V14.01,2013-05-14 22:58:00,
2013-05-14 19:03:00,77.3,58.3,30.08,SE,138,1.0,5.0,52,0.00,,---,0.00,VWS V14.01,2013-05-14 23:03:00,
2013-05-14 19:08:00,77.2,58.8,30.07,SE,130,1.0,2.0,53,0.00,,---,0.00,VWS V14.01,2013-05-14 23:08:00,
2013-05-14 19:12:00,77.1,59.2,30.07,SE,142,3.0,3.0,54,0.00,,---,0.00,VWS V14.01,2013-05-14 23:12:00,
2013-05-14 19:17:00,76.9,59.0,30.07,SE,127,1.0,4.0,54,0.00,,---,0.00,VWS V14.01,2013-05-14 23:17:00,
2013-05-14 19:22:00,76.7,60.3,30.07,SE,127,1.0,4.0,57,0.00,,---,0.00,VWS V14.01,2013-05-14 23:22:00,
2013-05-14 19:27:00,76.3,60.0,30.07,SE,128,2.0,4.0,57,0.00,,---,0.00,VWS V14.01,2013-05-14 23:27:00,
2013-05-14 19:32:00,75.9,60.1,30.08,SE,129,1.0,4.0,58,0.00,,---,0.00,VWS V14.01,2013-05-14 23:32:00,
2013-05-14 19:37:00,75.5,59.7,30.07,East,92,2.0,2.0,58,0.00,,---,0.00,VWS V14.01,2013-05-14 23:37:00,
2013-05-14 19:42:00,75.3,59.5,30.07,East,92,1.0,2.0,58,0.00,,---,0.00,VWS V14.01,2013-05-14 23:42:00,
2013-05-14 19:47:00,74.9,60.1,30.07,ESE,109,0.0,2.0,60,0.00,,---,0.00,VWS V14.01,2013-05-14 23:47:00,
2013-05-14 19:52:00,74.5,59.7,30.08,SE,137,0.0,6.0,60,0.00,,---,0.00,VWS V14.01,2013-05-14 23:52:00,
2013-05-14 19:57:00,74.2,59.4,30.08,SE,138,0.0,6.0,60,0.00,,---,0.00,VWS V14.01,2013-05-14 23:57:00,
2013-05-14 20:02:00,73.9,60.1,30.08,SE,139,1.0,6.0,62,0.00,,---,0.00,VWS V14.01,2013-05-15 00:02:00,
2013-05-14 20:07:00,73.7,60.3,30.07,SE,144,1.0,2.0,63,0.00,,---,0.00,VWS V14.01,2013-05-15 00:07:00,
2013-05-14 20:12:00,73.5,60.2,30.07,SE,143,1.0,2.0,63,0.00,,---,0.00,VWS V14.01,2013-05-15 00:12:00,
2013-05-14 20:17:00,73.2,59.9,30.07,West,272,0.0,3.0,63,0.00,,---,0.00,VWS V14.01,2013-05-15 00:17:00,
2013-05-14 20:22:00,73.0,60.1,30.07,SSW,204,1.0,3.0,64,0.00,,---,0.00,VWS V14.01,2013-05-15 00:22:00,
2013-05-14 20:27:00,72.7,60.3,30.07,SSE,158,0.0,3.0,65,0.00,,---,0.00,VWS V14.01,2013-05-15 00:27:00,
2013-05-14 20:32:00,72.4,59.5,30.07,South,183,2.0,3.0,64,0.00,,---,0.00,VWS V14.01,2013-05-15 00:32:00,
2013-05-14 20:37:00,72.1,60.5,30.07,South,183,0.0,1.0,67,0.00,,---,0.00,VWS V14.01,2013-05-15 00:37:00,
2013-05-14 20:42:00,71.7,59.8,30.07,ESE,114,0.0,1.0,66,0.00,,---,0.00,VWS V14.01,2013-05-15 00:42:00,
2013-05-14 20:47:00,71.3,59.8,30.07,ESE,114,0.0,1.0,67,0.00,,---,0.00,VWS V14.01,2013-05-15 00:47:00,
2013-05-14 20:52:00,71.1,59.6,30.07,SSW,200,1.0,2.0,67,0.00,,---,0.00,VWS V14.01,2013-05-15 00:52:00,
2013-05-14 20:57:00,70.8,59.7,30.07,SSW,213,0.0,3.0,68,0.00,,---,0.00,VWS V14.01,2013-05-15 00:57:00,
2013-05-14 21:02:00,70.6,59.5,30.07,SW,221,1.0,3.0,68,0.00,,---,0.00,VWS V14.01,2013-05-15 01:02:00,
2013-05-14 21:07:00,70.4,59.3,30.07,SW,225,1.0,2.0,68,0.00,,---,0.00,VWS V14.01,2013-05-15 01:07:00,
2013-05-14 21:12:00,70.3,59.2,30.07,SSW,192,0.0,2.0,68,0.00,,---,0.00,VWS V14.01,2013-05-15 01:12:00,
2013-05-14 21:17:00,70.1,59.5,30.08,SSW,192,0.0,2.0,69,0.00,,---,0.00,VWS V14.01,2013-05-15 01:17:00,
2013-05-14 21:22:00,69.9,59.7,30.08,South,175,0.0,2.0,70,0.00,,---,0.00,VWS V14.01,2013-05-15 01:22:00,
2013-05-14 21:27:00,69.7,59.9,30.08,South,175,0.0,2.0,71,0.00,,---,0.00,VWS V14.01,2013-05-15 01:27:00,
2013-05-14 21:32:00,69.5,59.7,30.08,South,175,0.0,2.0,71,0.00,,---,0.00,VWS V14.01,2013-05-15 01:32:00,
2013-05-14 21:37:00,69.1,59.7,30.08,South,175,0.0,0.0,72,0.00,,---,0.00,VWS V14.01,2013-05-15 01:37:00,
2013-05-14 21:42:00,68.8,59.8,30.08,South,175,0.0,0.0,73,0.00,,---,0.00,VWS V14.01,2013-05-15 01:42:00,
2013-05-14 21:47:00,68.5,59.5,30.08,South,176,2.0,2.0,73,0.00,,---,0.00,VWS V14.01,2013-05-15 01:47:00,
2013-05-14 21:52:00,68.3,59.7,30.08,South,175,0.0,2.0,74,0.00,,---,0.00,VWS V14.01,2013-05-15 01:52:00,
2013-05-14 21:57:00,68.1,59.1,30.09,South,171,1.0,2.0,73,0.00,,---,0.00,VWS V14.01,2013-05-15 01:57:00,
2013-05-14 22:02:00,68.0,59.4,30.09,South,171,0.0,2.0,74,0.00,,---,0.00,VWS V14.01,2013-05-15 02:02:00,
2013-05-14 22:07:00,68.0,59.4,30.09,South,171,0.0,1.0,74,0.00,,---,0.00,VWS V14.01,2013-05-15 02:07:00,
2013-05-14 22:12:00,67.9,59.3,30.09,South,171,0.0,2.0,74,0.00,,---,0.00,VWS V14.01,2013-05-15 02:12:00,
2013-05-14 22:17:00,67.9,59.7,30.09,South,171,0.0,2.0,75,0.00,,---,0.00,VWS V14.01,2013-05-15 02:17:00,
2013-05-14 22:22:00,67.8,59.6,30.09,South,171,0.0,2.0,75,0.00,,---,0.00,VWS V14.01,2013-05-15 02:22:00,
2013-05-14 22:27:00,67.6,59.8,30.09,South,171,0.0,2.0,76,0.00,,---,0.00,VWS V14.01,2013-05-15 02:27:00,
2013-05-14 22:32:00,67.4,59.6,30.09,South,171,0.0,2.0,76,0.00,,---,0.00,VWS V14.01,2013-05-15 02:32:00,
2013-05-14 22:37:00,67.2,59.8,30.09,South,171,0.0,0.0,77,0.00,,---,0.00,VWS V14.01,2013-05-15 02:37:00,
2013-05-14 22:42:00,66.9,59.5,30.09,South,171,0.0,1.0,77,0.00,,---,0.00,VWS V14.01,2013-05-15 02:42:00,
2013-05-14 22:47:00,66.7,59.6,30.09,South,171,0.0,1.0,78,0.00,,---,0.00,VWS V14.01,2013-05-15 02:47:00,
2013-05-14 22:52:00,66.5,59.1,30.09,South,171,0.0,2.0,77,0.00,,---,0.00,VWS V14.01,2013-05-15 02:52:00,
2013-05-14 22:57:00,66.4,59.3,30.10,South,171,0.0,2.0,78,0.00,,---,0.00,VWS V14.01,2013-05-15 02:57:00,
2013-05-14 23:02:00,66.3,59.2,30.10,South,171,0.0,2.0,78,0.00,,---,0.00,VWS V14.01,2013-05-15 03:02:00,
2013-05-14 23:07:00,66.1,59.0,30.09,South,171,0.0,0.0,78,0.00,,---,0.00,VWS V14.01,2013-05-15 03:07:00,
2013-05-14 23:12:00,65.9,58.9,30.09,South,171,0.0,1.0,78,0.00,,---,0.00,VWS V14.01,2013-05-15 03:12:00,
2013-05-14 23:17:00,65.7,59.0,30.10,South,171,0.0,1.0,79,0.00,,---,0.00,VWS V14.01,2013-05-15 03:17:00,
2013-05-14 23:22:00,65.6,59.3,30.09,South,171,0.0,1.0,80,0.00,,---,0.00,VWS V14.01,2013-05-15 03:22:00,
2013-05-14 23:27:00,65.4,58.7,30.10,South,171,0.0,1.0,79,0.00,,---,0.00,VWS V14.01,2013-05-15 03:27:00,
2013-05-14 23:32:00,65.1,58.4,30.10,South,171,0.0,1.0,79,0.00,,---,0.00,VWS V14.01,2013-05-15 03:32:00,
2013-05-14 23:37:00,64.9,58.6,30.09,South,171,0.0,0.0,80,0.00,,---,0.00,VWS V14.01,2013-05-15 03:37:00,
2013-05-14 23:42:00,64.7,58.7,30.09,South,171,0.0,0.0,81,0.00,,---,0.00,VWS V14.01,2013-05-15 03:42:00,
2013-05-14 23:47:00,64.5,58.5,30.09,South,171,0.0,0.0,81,0.00,,---,0.00,VWS V14.01,2013-05-15 03:47:00,
2013-05-14 23:52:00,64.4,58.8,30.09,South,171,0.0,0.0,82,0.00,,---,0.00,VWS V14.01,2013-05-15 03:52:00,
2013-05-14 23:57:00,64.2,58.9,30.10,South,171,0.0,0.0,83,0.00,,---,0.00,VWS V14.01,2013-05-15 03:57:00,